Hourly Data Report for December 01, 2018

TORONTO CITY
ONTARIO
Current Station Operator: ECCC - MSC

43°40'00.000" N
79°24'00.000" W
112.50 m
6158355
71508
XTO

Download Data

Hourly Data (December 2018)
Hourly Data Report for December 1, 2018
TIME
LST
Temp Definition
°C
Dew Point Definition
°C
Rel Hum Definition
%
Precip. Amount Definition
mm

Wind Dir Definition
10's deg

Wind Spd Definition
km/h
Visibility Definition
km
Stn Press Definition
kPa
Hmdx Definition


Wind Chill Definition


Weather Definition


00:00 2.7 -1.4 75 0.0 LegendMM LegendMM   100.74     LegendNANA
01:00 2.6 -1.3 75 0.0 LegendMM LegendMM   100.68     LegendNANA
02:00 2.5 -1.4 76 0.0 LegendMM LegendMM   100.71     LegendNANA
03:00 1.7 -2.2 75 0.0 LegendMM LegendMM   100.78     LegendNANA
04:00 1.6 -2.0 77 0.0 LegendMM LegendMM   100.77     LegendNANA
05:00 1.9 -2.2 74 0.0 LegendMM LegendMM   100.79     LegendNANA
06:00 2.3 -1.9 74 0.0 LegendMM LegendMM   100.78     LegendNANA
07:00 2.6 -1.6 74 0.0 LegendMM LegendMM   100.77     LegendNANA
08:00 2.8 -1.4 74 0.0 LegendMM LegendMM   100.73     LegendNANA
09:00 2.9 -0.8 76 0.0 LegendMM LegendMM   100.68     LegendNANA
10:00 3.2 0.0 80 0.0 LegendMM LegendMM   100.62     LegendNANA
11:00 3.6 0.1 78 0.0 LegendMM LegendMM   100.66     LegendNANA
12:00 3.3 -0.2 78 0.0 LegendMM LegendMM   100.56     LegendNANA
13:00 3.6 -0.5 74 0.0 LegendMM LegendMM   100.43     LegendNANA
14:00 3.6 -0.6 74 0.0 LegendMM LegendMM   100.31     LegendNANA
15:00 3.6 -0.6 74 0.0 LegendMM LegendMM   100.19     LegendNANA
16:00 3.6 0.2 79 0.0 LegendMM LegendMM   100.16     LegendNANA
17:00 3.8 0.2 78 0.0 LegendMM LegendMM   100.12     LegendNANA
18:00 3.8 0.5 79 0.0 LegendMM LegendMM   100.12     LegendNANA
19:00 3.1 1.2 87 1.6 LegendMM LegendMM   99.97     LegendNANA
20:00 3.3 1.2 86 0.3 LegendMM LegendMM   99.87     LegendNANA
21:00 3.6 1.4 85 0.0 LegendMM LegendMM   99.75     LegendNANA
22:00 3.7 1.4 85 0.0 LegendMM LegendMM   99.60     LegendNANA
23:00 3.5 2.1 91 0.2 LegendMM LegendMM   99.50     LegendNANA

Notes on Data Quality.

Legend

  • E = Estimated
  • M = Missing
  • NA = Not Available*
  • [empty] = Indicates an unobserved value
Date modified: